Change the Weather History Date:

Thursday, January 10, 2013

  Actual Average Record
Temperature  
Mean Temperature 34 °F -  
Max Temperature 37 °F 43 °F 56 °F (1961)
Min Temperature 30 °F 33 °F 12 °F (1949)
Degree Days  
Heating Degree Days 32    
Moisture  
Dew Point 32 °F    
Average Humidity 97    
Maximum Humidity 100    
Minimum Humidity 86    
Precipitation  
Precipitation 0.00 in - - ()
Sea Level Pressure  
Sea Level Pressure 30.04 in    
Wind  
Wind Speed 3 mph (WSW)    
Max Wind Speed 8 mph    
Max Gust Speed -    
Visibility 8 miles    
Events      
Averages and records for this station are not official NWS values.
T = Trace of Precipitation, MM = Missing Value Source: NWS Daily Summary

Daily Weather History Graph

Daily Weather History Graph

Search for Another Location

Airport or City:

Trip Planner

Search our weather history database for the weather conditions in past years. The results will help you decide how hot, cold, wet, or windy it might be!

Date:

Astronomy

Jan. 10, 2013 Rise Set
Actual Time 7:57 AM PST 4:43 PM PST
Civil Twilight 7:22 AM PST 5:18 PM PST
Nautical Twilight 6:44 AM PST 5:56 PM PST
Astronomical Twilight 6:07 AM PST 6:33 PM PST
Moon 6:41 AM PST (1/10) 3:59 PM PST (1/10)
Length of Visible Light 9h 56m
Length of Day
8h 46m
Waning Crescent, 1% of the Moon is Illuminated
Jan 10
Waning Crescent
Jan 11
New
Jan 18
First Quarter
Jan 26
Full
Feb 3
Last Quarter

Hourly Weather History & Observations

Time (PST) Temp. Windchill Dew Point Humidity Pressure Visibility Wind Dir Wind Speed Gust Speed Precip Events Conditions
12:03 AM 32.0 °F 25.6 °F 32.0 °F 100% 29.92 in 10.0 mi WSW 6.9 mph - N/A   Scattered Clouds
12:12 AM 32.0 °F 24.8 °F 32.0 °F 100% 29.92 in 10.0 mi WSW 8.1 mph - N/A   Mostly Cloudy
12:53 AM 32.0 °F 24.8 °F 32.0 °F 100% 29.94 in 10.0 mi WSW 8.1 mph - N/A   Overcast
1:53 AM 32.0 °F 28.7 °F 30.9 °F 96% 29.96 in 10.0 mi East 3.5 mph - N/A   Overcast
2:53 AM 32.0 °F 28.7 °F 32.0 °F 100% 29.97 in 8.0 mi West 3.5 mph - N/A   Overcast
3:53 AM 30.9 °F - 30.9 °F 100% 29.97 in 4.0 mi Calm Calm - N/A   Overcast
4:08 AM 30.2 °F - 30.2 °F 100% 29.96 in 2.5 mi Calm Calm - N/A   Overcast
4:30 AM 30.2 °F - 30.2 °F 100% 29.97 in 1.8 mi Calm Calm - N/A   Overcast
4:53 AM 30.9 °F - 30.9 °F 100% 29.99 in 1.5 mi Calm Calm - N/A   Overcast
5:40 AM 30.2 °F - 30.2 °F 100% 29.98 in 2.5 mi Calm Calm - N/A   Overcast
5:53 AM 30.9 °F - 30.9 °F 100% 30.01 in 2.5 mi Calm Calm - N/A   Overcast
6:10 AM 32.0 °F - 32.0 °F 100% 29.99 in 1.5 mi Calm Calm - N/A   Overcast
6:48 AM 32.0 °F - 32.0 °F 100% 30.00 in 1.8 mi Calm Calm - N/A   Overcast
6:53 AM 32.0 °F - 32.0 °F 100% 30.01 in 2.5 mi Calm Calm - N/A   Overcast
7:00 AM 32.0 °F - 32.0 °F 100% 30.01 in 8.0 mi Calm Calm - N/A   Overcast
7:08 AM 32.0 °F - 32.0 °F 100% 30.01 in 6.0 mi Calm Calm - N/A   Overcast
7:16 AM 32.0 °F - 32.0 °F 100% 30.02 in 4.0 mi Calm Calm - N/A   Overcast
7:23 AM 32.0 °F - 32.0 °F 100% 30.02 in 5.0 mi Calm Calm - N/A   Overcast
7:53 AM 32.0 °F - 32.0 °F 100% 30.06 in 10.0 mi Calm Calm - N/A   Overcast
8:10 AM 32.0 °F - 32.0 °F 100% 30.04 in 9.0 mi Calm Calm - N/A   Overcast
8:18 AM 32.0 °F - 32.0 °F 100% 30.05 in 7.0 mi Calm Calm - N/A   Overcast
8:53 AM 32.0 °F - 32.0 °F 100% 30.07 in 10.0 mi Calm Calm - N/A   Overcast
9:53 AM 32.0 °F - 32.0 °F 100% 30.08 in 10.0 mi Calm Calm - N/A   Overcast
10:07 AM 33.8 °F - 33.8 °F 100% 30.06 in 10.0 mi Calm Calm - N/A   Overcast
10:51 AM 33.8 °F - 33.8 °F 100% 30.06 in 10.0 mi Calm Calm - N/A   Overcast
10:53 AM 34.0 °F 31.0 °F 34.0 °F 100% 30.08 in 10.0 mi West 3.5 mph - N/A   Overcast
11:02 AM 33.8 °F 30.8 °F 33.8 °F 100% 30.07 in 10.0 mi WSW 3.5 mph - N/A   Overcast
11:53 AM 34.0 °F 29.8 °F 33.1 °F 96% 30.07 in 10.0 mi WSW 4.6 mph - N/A   Overcast
12:53 PM 36.0 °F 31.1 °F 33.1 °F 89% 30.07 in 10.0 mi SW 5.8 mph - N/A   Overcast
1:53 PM 36.0 °F 33.3 °F 33.1 °F 89% 30.07 in 10.0 mi WSW 3.5 mph - N/A   Overcast
2:49 PM 37.4 °F 34.9 °F 33.8 °F 87% 30.06 in 10.0 mi SE 3.5 mph - N/A   Overcast
2:53 PM 37.0 °F 34.5 °F 33.1 °F 86% 30.08 in 10.0 mi SSE 3.5 mph - N/A   Overcast
3:53 PM 37.0 °F 34.5 °F 33.1 °F 86% 30.09 in 10.0 mi West 3.5 mph - N/A   Overcast
4:53 PM 36.0 °F - 33.1 °F 89% 30.09 in 10.0 mi Calm Calm - N/A   Overcast
5:30 PM 35.6 °F - 32.0 °F 87% 30.06 in 10.0 mi Calm Calm - N/A   Overcast
5:53 PM 34.0 °F - 33.1 °F 96% 30.09 in 10.0 mi Calm Calm - N/A   Overcast
6:53 PM 35.1 °F - 33.1 °F 92% 30.09 in 10.0 mi Calm Calm - N/A   Overcast
7:53 PM 34.0 °F - 34.0 °F 100% 30.10 in 10.0 mi Calm Calm - N/A   Overcast
8:44 PM 33.8 °F - 33.8 °F 100% 30.08 in 10.0 mi Calm Calm - N/A   Overcast
8:53 PM 34.0 °F - 33.1 °F 96% 30.10 in 10.0 mi Calm Calm - N/A   Overcast
9:53 PM 33.1 °F - 33.1 °F 100% 30.11 in 10.0 mi Calm Calm - N/A   Overcast
10:20 PM 33.8 °F - 33.8 °F 100% 30.09 in 10.0 mi Calm Calm - N/A   Overcast
10:53 PM 34.0 °F - 33.1 °F 96% 30.11 in 10.0 mi Calm Calm - N/A   Overcast
11:19 PM 33.8 °F - 33.8 °F 100% 30.10 in 10.0 mi Calm Calm - N/A   Overcast
11:53 PM 34.0 °F - 33.1 °F 96% 30.12 in 10.0 mi Calm Calm - N/A   Overcast